When you browse on this site, cookies collect data to enhance your experience and personalize the content and advertising you see.
Visit our Privacy Policy to learn more. By continuing to use the site, you agree to this use of cookies and data.

Hourly Weather Chester

Today, 21 September, Monday

Time Temperature Precipitation Wind Pressure Humidity
00:00 +10°C° 0 mm 2 mps 764 mmHg 93%
01:00 +10°C° 0 mm 2 mps 764 mmHg 93%
02:00 +10°C° 0 mm 2 mps 763 mmHg 94%
03:00 +10°C° 0 mm 2 mps 763 mmHg 94%
04:00 +10°C° 0 mm 2 mps 763 mmHg 94%
05:00 +11°C° 0 mm 1 mps 763 mmHg 94%
06:00 +11°C° 0 mm 1 mps 763 mmHg 95%
07:00 +13°C° 0 mm 1 mps 763 mmHg 90%
08:00 +15°C° 0 mm 1 mps 762 mmHg 85%
09:00 +16°C° 0 mm 1 mps 762 mmHg 80%
10:00 +19°C° 0 mm 1 mps 762 mmHg 76%
11:00 +20°C° 0 mm 1 mps 762 mmHg 71%
12:00 +21°C° 0 mm 2 mps 762 mmHg 67%
13:00 +21°C° 0 mm 2 mps 761 mmHg 67%
14:00 +21°C° 0 mm 2 mps 761 mmHg 68%
15:00 +21°C° 0 mm 2 mps 760 mmHg 69%
16:00 +19°C° 0 mm 2 mps 760 mmHg 74%
17:00 +19°C° 0 mm 1 mps 760 mmHg 80%
18:00 +16°C° 0 mm 1 mps 759 mmHg 85%
19:00 +16°C° 0 mm 1 mps 760 mmHg 87%
20:00 +15°C° 0 mm 1 mps 760 mmHg 89%
21:00 +13°C° 0 mm 0 mps 760 mmHg 90%
22:00 +14°C° 0 mm 1 mps 759 mmHg 91%
23:00 +14°C° 0 mm 1 mps 759 mmHg 92%

Tomorrow, 22 September, Tuesday

Time Temperature Precipitation Wind Pressure Humidity
00:00 +14°C° 0 mm 1 mps 759 mmHg 92%
01:00 +13°C° 0 mm 1 mps 758 mmHg 93%
02:00 +13°C° 0 mm 1 mps 758 mmHg 93%
03:00 +13°C° 0 mm 2 mps 757 mmHg 94%
04:00 +13°C° 0 mm 2 mps 757 mmHg 94%
05:00 +13°C° 0 mm 2 mps 756 mmHg 94%
06:00 +13°C° 0 mm 2 mps 756 mmHg 94%
07:00 +15°C° 0 mm 2 mps 755 mmHg 90%
08:00 +16°C° 0 mm 2 mps 755 mmHg 86%
09:00 +18°C° 0 mm 3 mps 754 mmHg 82%
10:00 +19°C° 0 mm 4 mps 754 mmHg 77%
11:00 +20°C° 0 mm 4 mps 754 mmHg 72%
12:00 +22°C° 0 mm 5 mps 753 mmHg 68%
13:00 +21°C° 0 mm 5 mps 752 mmHg 70%
14:00 +21°C° 0 mm 4 mps 752 mmHg 73%
15:00 +20°C° 0 mm 4 mps 751 mmHg 75%
16:00 +19°C° 0 mm 4 mps 751 mmHg 77%
17:00 +18°C° 0 mm 4 mps 751 mmHg 79%
18:00 +17°C° 0 mm 3 mps 750 mmHg 81%
19:00 +16°C° 0 mm 3 mps 750 mmHg 83%
20:00 +14°C° 0 mm 3 mps 750 mmHg 85%
21:00 +14°C° 0 mm 3 mps 750 mmHg 87%
22:00 +13°C° 0 mm 3 mps 750 mmHg 88%
23:00 +13°C° 0 mm 3 mps 750 mmHg 89%

Day after tomorrow, 23 September, Wednesday

Time Temperature Precipitation Wind Pressure Humidity
00:00 +14°C° 0 mm 2 mps 750 mmHg 90%
01:00 +13°C° 0.9 mm 3 mps 750 mmHg 90%
02:00 +13°C° 0.9 mm 3 mps 750 mmHg 91%
03:00 +12°C° 0.9 mm 3 mps 749 mmHg 92%
04:00 +12°C° 0.6 mm 3 mps 749 mmHg 91%
05:00 +11°C° 0.6 mm 3 mps 749 mmHg 91%
06:00 +12°C° 0.6 mm 2 mps 749 mmHg 90%
07:00 +12°C° 0.1 mm 2 mps 749 mmHg 89%
08:00 +12°C° 0.1 mm 2 mps 749 mmHg 88%
09:00 +13°C° 0.1 mm 2 mps 749 mmHg 87%
10:00 +12°C° 0.1 mm 3 mps 749 mmHg 82%
11:00 +12°C° 0.1 mm 3 mps 749 mmHg 78%
12:00 +13°C° 0.1 mm 3 mps 749 mmHg 74%
13:00 +13°C° 0 mm 3 mps 749 mmHg 71%
14:00 +13°C° 0 mm 4 mps 749 mmHg 69%
15:00 +13°C° 0 mm 4 mps 748 mmHg 66%
16:00 +12°C° 0 mm 4 mps 748 mmHg 68%
17:00 +11°C° 0 mm 4 mps 748 mmHg 69%
18:00 +11°C° 0 mm 4 mps 748 mmHg 71%
19:00 +10°C° 0.1 mm 4 mps 748 mmHg 73%
20:00 +8°C° 0.1 mm 4 mps 748 mmHg 76%
21:00 +7°C° 0.1 mm 4 mps 748 mmHg 79%
22:00 +8°C° 0.1 mm 3 mps 748 mmHg 81%
23:00 +7°C° 0.1 mm 3 mps 748 mmHg 83%

24 September, Thursday

Time Temperature Precipitation Wind Pressure Humidity
00:00 +7°C° 0.1 mm 3 mps 748 mmHg 85%
01:00 +5°C° 0 mm 3 mps 748 mmHg 86%
02:00 +6°C° 0 mm 2 mps 747 mmHg 87%
03:00 +6°C° 0 mm 2 mps 747 mmHg 88%
04:00 +7°C° 0.2 mm 3 mps 746 mmHg 88%
05:00 +6°C° 0.2 mm 4 mps 746 mmHg 88%
06:00 +6°C° 0.2 mm 4 mps 745 mmHg 88%
07:00 +7°C° 0.3 mm 4 mps 745 mmHg 86%
08:00 +8°C° 0.3 mm 4 mps 744 mmHg 85%
09:00 +9°C° 0.3 mm 5 mps 744 mmHg 84%
10:00 +10°C° 0.3 mm 5 mps 744 mmHg 78%
11:00 +10°C° 0.3 mm 5 mps 744 mmHg 71%
12:00 +11°C° 0.3 mm 6 mps 743 mmHg 65%
13:00 +11°C° 0.2 mm 6 mps 743 mmHg 65%
14:00 +11°C° 0.2 mm 6 mps 743 mmHg 65%
15:00 +12°C° 0.2 mm 5 mps 743 mmHg 65%
16:00 +10°C° 0.3 mm 5 mps 743 mmHg 72%
17:00 +10°C° 0.3 mm 4 mps 743 mmHg 79%
18:00 +8°C° 0.3 mm 4 mps 743 mmHg 86%
19:00 +9°C° 0.4 mm 3 mps 743 mmHg 87%
20:00 +8°C° 0.4 mm 3 mps 744 mmHg 88%
21:00 +8°C° 0.4 mm 3 mps 744 mmHg 89%
22:00 +7°C° 0.1 mm 4 mps 745 mmHg 88%
23:00 +7°C° 0.1 mm 4 mps 746 mmHg 87%

25 September, Friday

Time Temperature Precipitation Wind Pressure Humidity
00:00 +7°C° 0.1 mm 5 mps 747 mmHg 85%
01:00 +7°C° 0 mm 5 mps 748 mmHg 85%
02:00 +7°C° 0 mm 5 mps 748 mmHg 85%
03:00 +7°C° 0 mm 5 mps 749 mmHg 85%
04:00 +7°C° 0 mm 6 mps 750 mmHg 82%
05:00 +5°C° 0 mm 6 mps 751 mmHg 79%
06:00 +5°C° 0 mm 6 mps 753 mmHg 76%
07:00 +6°C° 0 mm 7 mps 754 mmHg 73%
08:00 +8°C° 0 mm 7 mps 754 mmHg 71%
09:00 +9°C° 0 mm 8 mps 755 mmHg 68%
10:00 +10°C° 0 mm 8 mps 756 mmHg 65%
11:00 +10°C° 0 mm 8 mps 757 mmHg 63%
12:00 +11°C° 0 mm 8 mps 758 mmHg 60%
13:00 +11°C° 0.2 mm 7 mps 759 mmHg 62%
14:00 +11°C° 0.2 mm 7 mps 759 mmHg 64%
15:00 +11°C° 0.2 mm 7 mps 760 mmHg 66%
16:00 +10°C° 0.1 mm 6 mps 761 mmHg 67%
17:00 +9°C° 0.1 mm 5 mps 761 mmHg 68%
18:00 +10°C° 0.1 mm 4 mps 762 mmHg 69%
19:00 +8°C° 0 mm 4 mps 763 mmHg 70%
20:00 +8°C° 0 mm 3 mps 763 mmHg 71%
21:00 +7°C° 0 mm 2 mps 764 mmHg 73%
22:00 +7°C° 0 mm 2 mps 764 mmHg 74%
23:00 +6°C° 0 mm 2 mps 764 mmHg 76%

26 September, Saturday

Time Temperature Precipitation Wind Pressure Humidity
00:00 +6°C° 0 mm 2 mps 764 mmHg 77%
01:00 +6°C° 0 mm 2 mps 764 mmHg 78%
02:00 +6°C° 0 mm 2 mps 764 mmHg 78%
03:00 +5°C° 0 mm 3 mps 764 mmHg 79%
04:00 +5°C° 0 mm 3 mps 763 mmHg 82%
05:00 +5°C° 0 mm 3 mps 763 mmHg 85%
06:00 +5°C° 0 mm 3 mps 763 mmHg 88%
07:00 +8°C° 0 mm 3 mps 763 mmHg 83%
08:00 +9°C° 0 mm 3 mps 763 mmHg 77%
09:00 +11°C° 0 mm 3 mps 763 mmHg 72%
10:00 +12°C° 0 mm 3 mps 762 mmHg 69%
11:00 +12°C° 0 mm 3 mps 762 mmHg 65%
12:00 +13°C° 0 mm 3 mps 762 mmHg 62%
13:00 +13°C° 0 mm 3 mps 761 mmHg 62%
14:00 +14°C° 0 mm 2 mps 761 mmHg 61%
15:00 +14°C° 0 mm 2 mps 760 mmHg 61%
16:00 +13°C° 0 mm 2 mps 760 mmHg 66%
17:00 +12°C° 0 mm 1 mps 760 mmHg 72%
18:00 +10°C° 0 mm 1 mps 759 mmHg 77%
19:00 +10°C° 0 mm 1 mps 759 mmHg 78%
20:00 +10°C° 0 mm 1 mps 759 mmHg 79%
21:00 +9°C° 0 mm 1 mps 759 mmHg 80%
22:00 +9°C° 0 mm 2 mps 759 mmHg 79%
23:00 +9°C° 0 mm 2 mps 758 mmHg 78%
Show more